Home   Weather   Kempten   Past weeks

Flag for Germany Past Weather in Kempten, Bavaria, Germany — Yesterday and Last 2 Weeks

Now
48 °F

Cool.


Feels Like: 47 °F
Forecast: 28 / 41 °F
Wind: 3 mph from Southwest

Location: Altenstadt Airport

Current Time: Dec 10, 2016 at 5:50:10 pm

Latest Report: Dec 10, 2016 at 5:20 pm


Visibility: N/A

Pressure: 30.30 "Hg (27.93 "Hg at 673m altitude)

Humidity: 46%

Dew Point: 28 °F

Location of KemptenLocation

Past Weather in Kempten — Graph

°F

Kempten Temperature Yesterday

Maximum temperature yesterday: 54 °F (at 1:20 pm)
Minimum temperature yesterday: 30 °F (at 2:20 am)
Average temperature yesterday: 40 °F

High & Low Weather Summary for the Past Weeks

 TemperatureHumidityPressure
High54 °F (Dec 8, 1:20 pm)100% (Nov 25, 4:20 pm)30.54 "Hg (Nov 25, 4:20 pm)
Low18 °F (Nov 30, 1:20 am)21% (Dec 9, 1:20 pm)29.98 "Hg (Nov 25, 4:20 pm)
Average33 °F78%30.27 "Hg
* Reported Nov 25 4:20 pm — Dec 10 4:20 pm, Kempten, Weather by CustomWeather, © 2016

Note: Actual official high and low records may vary slightly from our data, if they occured in-between our weather recording intervals... More about our weather records

Advertising

Kempten Weather History for the Previous 24 Hours

Scroll right to see more
 ConditionsComfort  
Time TempWeatherWind HumidityBarometerVisibility
4:20 pm
Sat, Dec 10
48 °FCool.3 mph46%30.30 "HgN/A
3:20 pm48 °FCool.3 mph46%30.30 "HgN/A
2:20 pm48 °FCool.3 mph46%30.30 "HgN/A
1:20 pm48 °FCool.3 mph46%30.30 "HgN/A
12:20 pm48 °FCool.3 mph46%30.30 "HgN/A
11:20 am41 °FQuite cool.3 mph61%30.33 "HgN/A
10:20 am37 °FChilly.N/A65%30.33 "HgN/A
7:20 am30 °FChilly.N/A69%30.30 "HgN/A
6:20 am30 °FChilly.N/A69%30.33 "HgN/A
5:20 am28 °FChilly.5 mph74%30.33 "HgN/A
4:20 am30 °FChilly.5 mph69%30.33 "HgN/A
3:20 am30 °FChilly.5 mph69%30.36 "HgN/A
2:20 am28 °FChilly.3 mph74%30.39 "HgN/A
1:20 am30 °FChilly.5 mph69%30.39 "HgN/A
12:20 am28 °FChilly.6 mph74%30.39 "HgN/A
11:20 pm
Fri, Dec 9
30 °FChilly.2 mph69%30.42 "HgN/A
10:20 pm32 °FChilly.2 mph64%30.42 "HgN/A
9:20 pm34 °FChilly.3 mph60%30.45 "HgN/A
8:20 pm34 °FPassing clouds.3 mph60%30.45 "HgN/A
7:20 pm36 °FPassing clouds.5 mph56%30.45 "HgN/A
6:20 pm37 °FPassing clouds.5 mph52%30.45 "HgN/A
5:20 pm41 °FPassing clouds.2 mph45%30.45 "HgN/A
Weather by CustomWeather, © 2016

See weather overviewHow to use our weather pages